Погода в Быткове

Украина / Ивано-Франковская область     48°37′28″N   24°29′08″E
темп.,
°C
ветер,
м/с
пор.,
м/с
влажн.,
%
обл.,
%
осадки,
мм/ч
давл.,
гПа
погр.,
м
28 июля, ср
ср2800:00+20зюз376255 0.0 1017269
03:00+17юз33776 0.0 101842
06:00+17юз347599 0.0 101763
09:00+24юз29576 0.0 1016800
12:00+27зюз58385 0.0 10152091
15:00+29зюз493440 0.0 10153144
18:00+24юз255596 0.0 1014193
21:00+19юз3678100 0.0 1015119
29 июля, чт
чт2900:00+19юз356817 0.0 101490
03:00+17юз45700 0.0 101477
06:00+16юз45700 0.0 101373
09:00+22зюз14580 0.0 1012297
12:00+26з28462 0.0 10121780
15:00+23з4663100 1.3 10131116
18:00+20с128891 4.4 1013199
21:00+17сз11972 6.2 101412
30 июля, пт
пт3000:00+16ююз22970 0.1 101520
03:00+15юз22960 0.1 101624
06:00+14юз22940 0.0 101525
09:00+19ююз12770 0.0 1014188
12:00+25св13440 0.0 10131825
15:00+26ссв234422 0.0 10121815
18:00+24в226014 0.3 1012730
21:00+18ю22830 0.4 101328
31 июля, сб
сб3100:00+17юз33794 0.0 101236
03:00+16юз33781 0.0 101242
06:00+16юз33705 0.0 101143
09:00+23ююз23555 0.0 1010141
12:00+29юз37360 0.0 10082372
15:00+29юз5103672 0.0 10072843
18:00+27ююз385194 0.0 10061588
21:00+15ссв239835 1.1 1011125
1 августа, вс
вс100:00+14ююз119847 1.1 101487
03:00+14ююз229732 1.4 101376
06:00+14ююз119716 0.0 101313
09:00+18вюв12870 0.0 1012312
12:00+25в24550 0.0 10101196
15:00+29ююв28350 0.0 10072599
18:00+16зсз81691100 8.4 10101152
21:00+15ю3596100 31.8 100988